| time (UTC) | temp F | wind direction | speed knots | gust knots | rain 1hr in | rain 24hr in | rain mn in | humidity % | barometer mb |
| 20260906205557 | 70 | 32 | 0.9 | 7.0 | 0.00 | 0.67 | 0.67 | 94 | 1013.0 |
| 20260906205056 | 70 | 24 | 1.7 | 7.0 | 0.00 | 0.67 | 0.67 | 94 | 1012.5 |
| 20260906204603 | 70 | 9 | 1.7 | 4.3 | 0.00 | 0.67 | 0.67 | 94 | 1012.9 |
| 20260906204059 | 70 | 0 | 0.9 | 4.3 | 0.00 | 0.67 | 0.67 | 94 | 1012.9 |
| 20260906203552 | 70 | 45 | 0.9 | 3.5 | 0.00 | 0.67 | 0.67 | 94 | 1012.7 |
| 20260906203102 | 70 | 58 | 1.7 | 3.5 | 0.00 | 0.67 | 0.67 | 94 | 1012.7 |
| 20260906202555 | 70 | 5 | 0.9 | 2.6 | 0.00 | 0.67 | 0.67 | 94 | 1013.2 |
| 20260906202055 | 70 | 15 | 0.0 | 3.5 | 0.00 | 0.67 | 0.67 | 94 | 1013.2 |
| 20260906201634 | 70 | 54 | 0.9 | 3.5 | 0.00 | 0.67 | 0.67 | 94 | 1013.3 |
| 20260906201055 | 70 | 74 | 0.9 | 3.5 | 0.00 | 0.67 | 0.67 | 94 | 1013.3 |
| 20260906200555 | 70 | 37 | 1.7 | 3.5 | 0.00 | 0.67 | 0.67 | 94 | 1013.5 |
| 20260906200105 | 70 | 0 | 0.0 | 2.6 | 0.00 | 0.67 | 0.67 | 94 | 1013.6 |
| 20260906195554 | 70 | 57 | 0.0 | 2.6 | 0.01 | 0.67 | 0.67 | 94 | 1013.6 |
| 20260906195057 | 70 | 82 | 0.0 | 2.6 | 0.02 | 0.67 | 0.67 | 94 | 1013.9 |
| 20260906194608 | 69 | 83 | 0.0 | 3.5 | 0.03 | 0.67 | 0.67 | 94 | 1013.8 |
| 20260906194054 | 69 | 0 | 0.0 | 4.3 | 0.04 | 0.67 | 0.67 | 94 | 1013.9 |
| 20260906193555 | 69 | 0 | 0.0 | 4.3 | 0.05 | 0.67 | 0.67 | 94 | 1013.8 |
| 20260906193056 | 69 | 360 | 1.7 | 3.5 | 0.06 | 0.67 | 0.67 | 94 | 1013.7 |
| 20260906192551 | 69 | 0 | 0.9 | 2.6 | 0.07 | 0.67 | 0.67 | 94 | 1014.6 |
| 20260906192055 | 69 | 0 | 0.0 | 4.3 | 0.08 | 0.67 | 0.67 | 94 | 1014.1 |
| 20260906191612 | 69 | 0 | 1.7 | 4.3 | 0.08 | 0.67 | 0.67 | 94 | 1013.8 |
| 20260906191056 | 69 | 336 | 0.9 | 3.5 | 0.09 | 0.67 | 0.67 | 94 | 1013.9 |
| 20260906190556 | 69 | 0 | 0.9 | 3.5 | 0.09 | 0.67 | 0.67 | 94 | 1014.1 |
| 20260906190108 | 69 | 0 | 0.0 | 0.0 | 0.09 | 0.67 | 0.67 | 94 | 1014.3 |
| 20260906185558 | 69 | 0 | 0.0 | 1.7 | 0.08 | 0.66 | 0.66 | 94 | 1014.3 |
| 20260906185055 | 69 | 0 | 0.0 | 2.6 | 0.09 | 0.65 | 0.65 | 94 | 1014.5 |
| 20260906184603 | 68 | 335 | 0.0 | 3.5 | 0.09 | 0.64 | 0.64 | 94 | 1015.0 |
| 20260906184055 | 68 | 296 | 0.0 | 3.5 | 0.09 | 0.63 | 0.63 | 94 | 1014.6 |
| 20260906183552 | 68 | 0 | 0.0 | 3.5 | 0.09 | 0.62 | 0.62 | 94 | 1014.7 |
| 20260906183104 | 68 | 300 | 0.9 | 3.5 | 0.09 | 0.61 | 0.61 | 94 | 1014.7 |
| 20260906182559 | 68 | 328 | 0.9 | 3.5 | 0.10 | 0.60 | 0.60 | 94 | 1014.8 |
| 20260906182058 | 68 | 344 | 0.0 | 3.5 | 0.10 | 0.58 | 0.58 | 94 | 1014.9 |
| 20260906181624 | 68 | 351 | 0.0 | 3.5 | 0.12 | 0.58 | 0.58 | 94 | 1014.9 |
| 20260906181055 | 68 | 0 | 0.9 | 3.5 | 0.12 | 0.58 | 0.58 | 94 | 1014.6 |
| 20260906180555 | 68 | 26 | 0.0 | 3.5 | 0.13 | 0.58 | 0.58 | 94 | 1014.8 |
| 20260906180107 | 68 | 0 | 0.0 | 3.5 | 0.13 | 0.58 | 0.58 | 94 | 1015.1 |
| 20260906175557 | 68 | 0 | 0.0 | 3.5 | 0.14 | 0.58 | 0.58 | 93 | 1015.0 |
| 20260906175055 | 68 | 0 | 0.9 | 4.3 | 0.12 | 0.56 | 0.56 | 93 | 1014.7 |
| 20260906174611 | 68 | 5 | 0.9 | 4.3 | 0.13 | 0.55 | 0.55 | 93 | 1014.9 |
| 20260906174054 | 68 | 28 | 0.9 | 2.6 | 0.14 | 0.52 | 0.52 | 93 | 1015.2 |
| 20260906173555 | 68 | 0 | 0.9 | 2.6 | 0.16 | 0.52 | 0.52 | 93 | 1015.2 |
| 20260906173105 | 68 | 0 | 0.0 | 1.7 | 0.18 | 0.52 | 0.52 | 93 | 1015.2 |
| 20260906172556 | 68 | 0 | 0.0 | 1.7 | 0.18 | 0.50 | 0.50 | 94 | 1015.2 |
| 20260906172059 | 67 | 0 | 0.0 | 1.7 | 0.20 | 0.49 | 0.49 | 93 | 1015.2 |
| 20260906171603 | 67 | 0 | 0.0 | 0.0 | 0.20 | 0.47 | 0.47 | 93 | 1015.1 |
| 20260906171056 | 67 | 0 | 0.0 | 1.7 | 0.22 | 0.46 | 0.46 | 93 | 1015.2 |
| 20260906170555 | 67 | 0 | 0.0 | 1.7 | 0.22 | 0.45 | 0.45 | 93 | 1015.1 |
| 20260906170106 | 67 | 351 | 0.0 | 1.7 | 0.23 | 0.45 | 0.45 | 93 | 1014.7 |
| 20260906165557 | 67 | 0 | 0.0 | 3.5 | 0.23 | 0.44 | 0.44 | 93 | 1014.5 |
| 20260906165055 | 66 | 0 | 0.9 | 3.5 | 0.24 | 0.44 | 0.44 | 92 | 1014.3 |
| 20260906164602 | 67 | 340 | 1.7 | 3.5 | 0.22 | 0.42 | 0.42 | 91 | 1014.0 |
| 20260906164056 | 67 | 344 | 0.0 | 1.7 | 0.19 | 0.39 | 0.39 | 92 | 1014.2 |
| 20260906163556 | 67 | 0 | 0.0 | 0.9 | 0.17 | 0.37 | 0.37 | 92 | 1014.5 |
| 20260906163106 | 67 | 0 | 0.0 | 2.6 | 0.14 | 0.34 | 0.34 | 92 | 1014.4 |
| 20260906162556 | 67 | 0 | 0.0 | 3.5 | 0.12 | 0.32 | 0.32 | 91 | 1014.5 |
| 20260906162058 | 67 | 0 | 0.9 | 3.5 | 0.09 | 0.29 | 0.29 | 91 | 1014.7 |
| 20260906161610 | 67 | 184 | 0.0 | 0.0 | 0.07 | 0.27 | 0.27 | 91 | 1014.7 |
| 20260906161055 | 67 | 0 | 0.0 | 0.0 | 0.04 | 0.24 | 0.24 | 91 | 1014.5 |
| 20260906160555 | 67 | 0 | 0.0 | 0.0 | 0.03 | 0.23 | 0.23 | 91 | 1014.2 |
| 20260906160105 | 67 | 0 | 0.0 | 0.9 | 0.02 | 0.22 | 0.22 | 91 | 1014.2 |
| 20260906155555 | 67 | 0 | 0.0 | 1.7 | 0.01 | 0.21 | 0.21 | 91 | 1014.0 |
| 20260906155058 | 67 | 0 | 0.0 | 1.7 | 0.00 | 0.20 | 0.20 | 91 | 1013.9 |
| 20260906154602 | 67 | 121 | 0.0 | 0.9 | 0.00 | 0.20 | 0.20 | 91 | 1013.6 |
| 20260906154052 | 67 | 0 | 0.0 | 3.5 | 0.01 | 0.20 | 0.20 | 91 | 1013.4 |
| 20260906153555 | 66 | 0 | 0.0 | 3.5 | 0.01 | 0.20 | 0.20 | 91 | 1013.2 |
| 20260906153109 | 66 | 331 | 0.0 | 3.5 | 0.01 | 0.20 | 0.20 | 91 | 1012.9 |
| 20260906152557 | 66 | 0 | 0.0 | 4.3 | 0.01 | 0.20 | 0.20 | 91 | 1012.8 |
| 20260906152055 | 66 | 0 | 1.7 | 4.3 | 0.01 | 0.20 | 0.20 | 91 | 1012.7 |
| 20260906151557 | 65 | 348 | 0.9 | 5.2 | 0.01 | 0.20 | 0.20 | 91 | 1012.7 |
| 20260906151055 | 65 | 319 | 0.9 | 5.2 | 0.02 | 0.20 | 0.20 | 91 | 1012.6 |
| 20260906150555 | 65 | 303 | 0.9 | 6.1 | 0.02 | 0.20 | 0.20 | 90 | 1012.4 |
| 20260906150107 | 65 | 332 | 1.7 | 6.1 | 0.02 | 0.20 | 0.20 | 91 | 1012.5 |
| 20260906145555 | 64 | 20 | 1.7 | 7.0 | 0.02 | 0.20 | 0.20 | 90 | 1012.6 |
| 20260906145052 | 64 | 16 | 1.7 | 7.0 | 0.03 | 0.20 | 0.20 | 90 | 1012.6 |
| 20260906144600 | 64 | 9 | 1.7 | 7.8 | 0.02 | 0.19 | 0.19 | 90 | 1012.5 |
| 20260906144055 | 64 | 42 | 3.5 | 9.6 | 0.03 | 0.19 | 0.19 | 90 | 1012.4 |
| 20260906143556 | 63 | 331 | 1.7 | 9.6 | 0.03 | 0.19 | 0.19 | 90 | 1012.4 |
| 20260906143058 | 63 | 24 | 4.3 | 10.4 | 0.04 | 0.19 | 0.19 | 89 | 1012.4 |
| 20260906142555 | 63 | 38 | 2.6 | 10.4 | 0.04 | 0.19 | 0.19 | 89 | 1012.5 |
| 20260906142057 | 63 | 5 | 4.3 | 13.9 | 0.05 | 0.19 | 0.19 | 89 | 1012.5 |
| 20260906141604 | 62 | 31 | 7.0 | 13.9 | 0.05 | 0.19 | 0.19 | 89 | 1012.6 |
| 20260906141055 | 62 | 10 | 6.1 | 13.9 | 0.05 | 0.18 | 0.18 | 89 | 1012.7 |
| 20260906140557 | 62 | 338 | 4.3 | 13.9 | 0.06 | 0.18 | 0.18 | 89 | 1012.7 |
| 20260906140109 | 62 | 360 | 3.5 | 13.0 | 0.06 | 0.18 | 0.18 | 89 | 1012.4 |
| 20260906135556 | 62 | 309 | 3.5 | 11.3 | 0.08 | 0.18 | 0.18 | 89 | 1012.7 |
| 20260906135058 | 62 | 15 | 5.2 | 11.3 | 0.08 | 0.17 | 0.17 | 88 | 1012.8 |
| 20260906134615 | 62 | 66 | 2.6 | 9.6 | 0.08 | 0.17 | 0.17 | 88 | 1013.1 |
| 20260906134056 | 62 | 5 | 3.5 | 9.6 | 0.08 | 0.16 | 0.16 | 87 | 1013.2 |
| 20260906133555 | 62 | 340 | 3.5 | 9.6 | 0.09 | 0.16 | 0.16 | 86 | 1012.9 |
| 20260906133104 | 62 | 322 | 1.7 | 6.1 | 0.09 | 0.15 | 0.15 | 85 | 1013.1 |
| 20260906132557 | 63 | 348 | 1.7 | 7.0 | 0.10 | 0.15 | 0.15 | 84 | 1013.1 |
| 20260906132058 | 64 | 292 | 1.7 | 7.0 | 0.11 | 0.14 | 0.14 | 84 | 1013.4 |
| 20260906131603 | 64 | 0 | 1.7 | 7.0 | 0.13 | 0.14 | 0.14 | 84 | 1013.0 |
| 20260906131056 | 65 | 0 | 1.7 | 6.1 | 0.13 | 0.13 | 0.13 | 83 | 1012.9 |
| 20260906130556 | 66 | 298 | 0.9 | 4.3 | 0.12 | 0.12 | 0.12 | 83 | 1012.8 |
| 20260906130114 | 67 | 19 | 1.7 | 4.3 | 0.12 | 0.12 | 0.12 | 82 | 1012.3 |
| 20260906125556 | 67 | 0 | 1.7 | 4.3 | 0.10 | 0.10 | 0.10 | 81 | 1012.7 |
| 20260906125058 | 68 | 15 | 0.9 | 7.0 | 0.09 | 0.09 | 0.09 | 79 | 1013.4 |
| 20260906124557 | 69 | 273 | 0.9 | 7.0 | 0.09 | 0.09 | 0.09 | 78 | 1013.4 |
| 20260906124056 | 69 | 273 | 2.6 | 7.0 | 0.08 | 0.08 | 0.08 | 75 | 1013.6 |
| 20260906123555 | 70 | 184 | 1.7 | 4.3 | 0.07 | 0.07 | 0.07 | 72 | 1013.3 |
| 20260906123058 | 71 | 175 | 1.7 | 4.3 | 0.05 | 0.05 | 0.05 | 67 | 1012.7 |
| 20260906122555 | 71 | 0 | 0.0 | 2.6 | 0.05 | 0.05 | 0.05 | 64 | 1012.1 |
| 20260906122056 | 72 | 0 | 0.0 | 4.3 | 0.03 | 0.03 | 0.03 | 63 | 1012.0 |
| 20260906121618 | 73 | 152 | 0.9 | 4.3 | 0.01 | 0.01 | 0.01 | 60 | 1011.9 |
| 20260906121057 | 73 | 0 | 2.6 | 4.3 | 0.00 | 0.00 | 0.00 | 55 | 1011.8 |
| 20260906120552 | 72 | 166 | 0.0 | 1.7 | 0.00 | 0.00 | 0.00 | 55 | 1011.6 |
| 20260906120104 | 72 | 0 | 0.0 | 0.0 | 0.00 | 0.00 | 0.00 | 56 | 1011.3 |
| 20260906115555 | 72 | 0 | 0.0 | 0.0 | 0.00 | 0.00 | 0.00 | 57 | 1011.1 |
| 20260906115055 | 72 | 0 | 0.0 | 0.0 | 0.00 | 0.00 | 0.00 | 56 | 1011.1 |
| 20260906114627 | 72 | 0 | 0.0 | 0.0 | 0.00 | 0.00 | 0.00 | 55 | 1011.1 |
| 20260906114055 | 72 | 0 | 0.0 | 0.9 | 0.00 | 0.00 | 0.00 | 55 | 1011.1 |
| 20260906113551 | 72 | 0 | 0.0 | 0.9 | 0.00 | 0.00 | 0.00 | 56 | 1011.3 |
| 20260906113114 | 72 | 0 | 0.0 | 0.9 | 0.00 | 0.00 | 0.00 | 56 | 1011.2 |
| 20260906112555 | 72 | 0 | 0.0 | 2.6 | 0.00 | 0.00 | 0.00 | 56 | 1011.2 |
| 20260906112055 | 72 | 0 | 0.0 | 2.6 | 0.00 | 0.00 | 0.00 | 55 | 1011.2 |
| 20260906111603 | 72 | 352 | 0.0 | 1.7 | 0.00 | 0.00 | 0.00 | 56 | 1011.2 |
| 20260906111055 | 73 | 0 | 0.0 | 0.9 | 0.00 | 0.00 | 0.00 | 56 | 1011.2 |
| 20260906110555 | 73 | 0 | 0.0 | 0.9 | 0.00 | 0.00 | 0.00 | 55 | 1011.2 |
| 20260906110100 | 73 | 0 | 0.0 | 0.0 | 0.00 | 0.00 | 0.00 | 54 | 1011.3 |
| 20260906105556 | 73 | 0 | 0.0 | 0.0 | 0.00 | 0.00 | 0.00 | 55 | 1011.3 |
| 20260906105057 | 73 | 0 | 0.0 | 0.0 | 0.00 | 0.00 | 0.00 | 54 | 1011.2 |
| 20260906104605 | 73 | 0 | 0.0 | 0.0 | 0.00 | 0.00 | 0.00 | 55 | 1011.2 |
| 20260906104056 | 73 | 0 | 0.0 | 0.0 | 0.00 | 0.00 | 0.00 | 54 | 1011.1 |
| 20260906103555 | 73 | 0 | 0.0 | 0.0 | 0.00 | 0.00 | 0.00 | 54 | 1011.2 |
| 20260906103114 | 73 | 0 | 0.0 | 0.9 | 0.00 | 0.00 | 0.00 | 53 | 1011.2 |
| 20260906102557 | 73 | 0 | 0.0 | 1.7 | 0.00 | 0.00 | 0.00 | 53 | 1011.1 |
| 20260906102059 | 73 | 0 | 0.0 | 1.7 | 0.00 | 0.00 | 0.00 | 53 | 1011.2 |
| 20260906101605 | 73 | 0 | 0.0 | 0.9 | 0.00 | 0.00 | 0.00 | 54 | 1011.2 |
| 20260906101055 | 73 | 0 | 0.0 | 0.0 | 0.00 | 0.00 | 0.00 | 53 | 1011.2 |
| 20260906100555 | 73 | 0 | 0.0 | 0.0 | 0.00 | 0.00 | 0.00 | 53 | 1011.1 |
| 20260906100101 | 73 | 0 | 0.0 | 0.0 | 0.00 | 0.00 | 0.00 | 53 | 1011.2 |
| 20260906095556 | 73 | 0 | 0.0 | 0.0 | 0.00 | 0.00 | 0.00 | 54 | 1011.2 |
| 20260906095056 | 73 | 0 | 0.0 | 0.0 | 0.00 | 0.00 | 0.00 | 53 | 1011.3 |
| 20260906094557 | 73 | 0 | 0.0 | 0.0 | 0.00 | 0.00 | 0.00 | 51 | 1011.3 |
| 20260906094055 | 73 | 0 | 0.0 | 0.9 | 0.00 | 0.00 | 0.00 | 50 | 1011.2 |
| 20260906093556 | 73 | 0 | 0.0 | 0.9 | 0.00 | 0.00 | 0.00 | 51 | 1011.3 |
| 20260906093056 | 73 | 0 | 0.0 | 1.7 | 0.00 | 0.00 | 0.00 | 50 | 1011.2 |
| 20260906092555 | 73 | 0 | 0.0 | 1.7 | 0.00 | 0.00 | 0.00 | 50 | 1011.2 |
| 20260906092056 | 73 | 352 | 0.0 | 1.7 | 0.00 | 0.00 | 0.00 | 49 | 1011.2 |
| 20260906091614 | 73 | 0 | 0.0 | 2.6 | 0.00 | 0.00 | 0.00 | 50 | 1011.2 |
| 20260906091055 | 73 | 0 | 0.0 | 2.6 | 0.00 | 0.00 | 0.00 | 50 | 1011.2 |
| 20260906090558 | 73 | 345 | 0.0 | 2.6 | 0.00 | 0.00 | 0.00 | 50 | 1011.2 |
| 20260906090111 | 73 | 360 | 0.0 | 2.6 | 0.00 | 0.00 | 0.00 | 50 | 1011.3 |
| 20260906085554 | 73 | 0 | 0.9 | 2.6 | 0.00 | 0.00 | 0.00 | 50 | 1011.2 |
| 20260906085056 | 73 | 0 | 0.9 | 2.6 | 0.00 | 0.00 | 0.00 | 50 | 1011.3 |
| 20260906084558 | 73 | 0 | 0.9 | 4.3 | 0.00 | 0.00 | 0.00 | 51 | 1011.4 |
| 20260906084055 | 73 | 0 | 0.9 | 4.3 | 0.00 | 0.00 | 0.00 | 52 | 1011.4 |
| 20260906083556 | 72 | 350 | 2.6 | 4.3 | 0.00 | 0.00 | 0.00 | 52 | 1011.3 |
| 20260906083103 | 72 | 348 | 0.9 | 3.5 | 0.00 | 0.00 | 0.00 | 52 | 1011.4 |
| 20260906082555 | 72 | 323 | 0.9 | 3.5 | 0.00 | 0.00 | 0.00 | 52 | 1011.5 |
| 20260906082055 | 72 | 0 | 0.0 | 3.5 | 0.00 | 0.00 | 0.00 | 52 | 1011.6 |
| 20260906081559 | 72 | 360 | 0.9 | 3.5 | 0.00 | 0.00 | 0.00 | 52 | 1011.6 |
| 20260906081056 | 72 | 0 | 0.0 | 1.7 | 0.00 | 0.00 | 0.00 | 54 | 1011.6 |
| 20260906080555 | 72 | 0 | 0.0 | 1.7 | 0.00 | 0.00 | 0.00 | 54 | 1011.6 |
| 20260906080111 | 72 | 0 | 0.0 | 1.7 | 0.00 | 0.00 | 0.00 | 54 | 1011.6 |
| 20260906075555 | 72 | 0 | 0.0 | 1.7 | 0.00 | 0.00 | 0.00 | 54 | 1011.6 |
| 20260906075055 | 72 | 0 | 0.0 | 1.7 | 0.00 | 0.00 | 0.00 | 55 | 1011.6 |
| 20260906074559 | 72 | 0 | 0.0 | 1.7 | 0.00 | 0.00 | 0.00 | 55 | 1011.6 |
| 20260906074054 | 72 | 338 | 0.0 | 1.7 | 0.00 | 0.00 | 0.00 | 55 | 1011.6 |
| 20260906073556 | 72 | 0 | 0.0 | 1.7 | 0.00 | 0.00 | 0.00 | 55 | 1011.7 |
| 20260906073103 | 72 | 352 | 0.0 | 1.7 | 0.00 | 0.00 | 0.00 | 54 | 1011.6 |
| 20260906072556 | 72 | 0 | 0.0 | 1.7 | 0.00 | 0.00 | 0.00 | 54 | 1011.6 |
| 20260906072056 | 71 | 0 | 0.0 | 1.7 | 0.00 | 0.00 | 0.00 | 54 | 1011.6 |
| 20260906071613 | 71 | 0 | 0.0 | 1.7 | 0.00 | 0.00 | 0.00 | 54 | 1011.6 |
| 20260906071055 | 71 | 0 | 0.0 | 2.6 | 0.00 | 0.00 | 0.00 | 55 | 1011.5 |
| 20260906070554 | 71 | 352 | 0.9 | 2.6 | 0.00 | 0.00 | 0.00 | 55 | 1011.5 |
| 20260906070106 | 71 | 352 | 0.0 | 2.6 | 0.00 | 0.00 | 0.00 | 55 | 1011.5 |
| 20260906065557 | 71 | 345 | 0.9 | 3.5 | 0.00 | 0.00 | 0.00 | 55 | 1011.5 |
| 20260906065055 | 71 | 0 | 0.9 | 3.5 | 0.00 | 0.00 | 0.00 | 55 | 1011.6 |
| 20260906064602 | 71 | 342 | 1.7 | 3.5 | 0.00 | 0.00 | 0.00 | 55 | 1011.4 |
| 20260906064057 | 71 | 338 | 0.0 | 1.7 | 0.00 | 0.00 | 0.00 | 54 | 1011.6 |
| 20260906063555 | 71 | 0 | 0.0 | 0.9 | 0.00 | 0.00 | 0.00 | 54 | 1011.6 |
| 20260906063057 | 71 | 0 | 0.0 | 0.9 | 0.00 | 0.00 | 0.00 | 54 | 1011.6 |
| 20260906062559 | 71 | 0 | 0.0 | 0.9 | 0.00 | 0.00 | 0.00 | 53 | 1011.7 |
| 20260906062055 | 71 | 0 | 0.0 | 1.7 | 0.00 | 0.00 | 0.00 | 52 | 1011.7 |
| 20260906061606 | 71 | 0 | 0.0 | 1.7 | 0.00 | 0.00 | 0.00 | 52 | 1011.8 |
| 20260906061055 | 71 | 338 | 0.0 | 1.7 | 0.00 | 0.00 | 0.00 | 53 | 1011.8 |
| 20260906060555 | 71 | 0 | 0.0 | 0.0 | 0.00 | 0.00 | 0.00 | 52 | 1011.8 |
| 20260906060155 | 71 | 0 | 0.0 | 0.0 | 0.00 | 0.00 | 0.00 | 52 | 1011.8 |
| 20260906055555 | 71 | 0 | 0.0 | 0.0 | 0.00 | 0.00 | 0.00 | 49 | 1011.8 |
| 20260906055056 | 71 | 0 | 0.0 | 0.0 | 0.00 | 0.00 | 0.00 | 49 | 1011.8 |
| 20260906054609 | 71 | 0 | 0.0 | 0.9 | 0.00 | 0.00 | 0.00 | 50 | 1011.8 |
| 20260906054056 | 72 | 0 | 0.0 | 0.9 | 0.00 | 0.00 | 0.00 | 51 | 1011.9 |
| 20260906053555 | 72 | 0 | 0.0 | 0.9 | 0.00 | 0.00 | 0.00 | 51 | 1011.8 |
| 20260906053055 | 72 | 0 | 0.0 | 0.9 | 0.00 | 0.00 | 0.00 | 50 | 1011.9 |
| 20260906052556 | 72 | 0 | 0.0 | 0.9 | 0.00 | 0.00 | 0.00 | 49 | 1011.9 |
| 20260906052057 | 72 | 0 | 0.0 | 0.9 | 0.00 | 0.00 | 0.00 | 49 | 1012.0 |
| 20260906051605 | 72 | 0 | 0.0 | 0.9 | 0.00 | 0.00 | 0.00 | 50 | 1012.0 |
| 20260906051055 | 72 | 0 | 0.0 | 0.9 | 0.00 | 0.00 | 0.00 | 50 | 1012.0 |
| 20260906050556 | 72 | 0 | 0.0 | 0.9 | 0.00 | 0.00 | 0.00 | 49 | 1012.0 |
| 20260906050114 | 72 | 0 | 0.0 | 2.6 | 0.00 | 0.00 | 0.00 | 49 | 1012.0 |
| 20260906045555 | 72 | 0 | 0.0 | 2.6 | 0.00 | 0.00 | 0.00 | 49 | 1011.9 |
| 20260906045055 | 72 | 0 | 0.9 | 2.6 | 0.00 | 0.00 | 0.00 | 49 | 1011.9 |
| 20260906044558 | 72 | 340 | 0.9 | 2.6 | 0.00 | 0.00 | 0.00 | 49 | 1011.9 |
| 20260906044057 | 73 | 323 | 0.0 | 2.6 | 0.00 | 0.00 | 0.00 | 49 | 1011.9 |
| 20260906043555 | 73 | 0 | 0.0 | 2.6 | 0.00 | 0.00 | 0.00 | 48 | 1012.0 |
| 20260906043110 | 73 | 0 | 0.9 | 2.6 | 0.00 | 0.00 | 0.00 | 47 | 1012.0 |
| 20260906042556 | 73 | 0 | 0.0 | 0.9 | 0.00 | 0.00 | 0.00 | 48 | 1011.9 |
| 20260906042055 | 73 | 0 | 0.0 | 0.9 | 0.00 | 0.00 | 0.00 | 47 | 1012.0 |
| 20260906041605 | 74 | 26 | 0.0 | 0.9 | 0.00 | 0.00 | 0.00 | 46 | 1012.0 |
| 20260906041054 | 74 | 0 | 0.0 | 1.7 | 0.00 | 0.00 | 0.00 | 47 | 1012.0 |
| 20260906040555 | 74 | 0 | 0.0 | 1.7 | 0.00 | 0.00 | 0.00 | 48 | 1011.9 |
| 20260906035555 | 75 | 0 | 0.0 | 1.7 | 0.00 | 0.00 | 0.00 | 48 | 1011.8 |
| 20260906035056 | 75 | 0 | 0.0 | 1.7 | 0.00 | 0.00 | 0.00 | 45 | 1011.8 |
| 20260906034601 | 75 | 55 | 0.0 | 1.7 | 0.00 | 0.00 | 0.00 | 45 | 1011.8 |
| 20260906034055 | 75 | 0 | 0.0 | 0.0 | 0.00 | 0.00 | 0.00 | 45 | 1011.8 |
| 20260906033555 | 76 | 0 | 0.0 | 0.0 | 0.00 | 0.00 | 0.00 | 46 | 1011.8 |
| 20260906033057 | 76 | 0 | 0.0 | 0.0 | 0.00 | 0.00 | 0.00 | 45 | 1011.6 |
| 20260906032555 | 76 | 0 | 0.0 | 0.0 | 0.00 | 0.00 | 0.00 | 45 | 1011.6 |
| 20260906032056 | 76 | 0 | 0.0 | 0.0 | 0.00 | 0.00 | 0.00 | 44 | 1011.4 |
| 20260906031630 | 76 | 0 | 0.0 | 0.0 | 0.00 | 0.00 | 0.00 | 42 | 1011.4 |
| 20260906031056 | 76 | 0 | 0.0 | 1.7 | 0.00 | 0.00 | 0.00 | 42 | 1011.4 |
| 20260906030556 | 76 | 0 | 0.0 | 1.7 | 0.00 | 0.00 | 0.00 | 42 | 1011.3 |
| 20260906030059 | 76 | 0 | 0.0 | 1.7 | 0.00 | 0.00 | 0.00 | 41 | 1011.4 |
| 20260906025555 | 76 | 0 | 0.0 | 4.3 | 0.00 | 0.00 | 0.00 | 41 | 1011.4 |
| 20260906025056 | 76 | 180 | 0.9 | 4.3 | 0.00 | 0.00 | 0.00 | 40 | 1011.4 |
| 20260906024607 | 76 | 192 | 1.7 | 4.3 | 0.00 | 0.00 | 0.00 | 41 | 1011.4 |
| 20260906024055 | 76 | 186 | 0.9 | 5.2 | 0.00 | 0.00 | 0.00 | 42 | 1011.5 |
| 20260906023556 | 76 | 220 | 0.9 | 5.2 | 0.00 | 0.00 | 0.00 | 41 | 1011.5 |
| 20260906023113 | 77 | 196 | 0.9 | 5.2 | 0.00 | 0.00 | 0.00 | 42 | 1011.5 |
| 20260906022557 | 77 | 190 | 1.7 | 5.2 | 0.00 | 0.00 | 0.00 | 41 | 1011.4 |
| 20260906022056 | 77 | 182 | 1.7 | 5.2 | 0.00 | 0.00 | 0.00 | 40 | 1011.5 |
| 20260906021557 | 77 | 182 | 0.9 | 7.0 | 0.00 | 0.00 | 0.00 | 39 | 1011.5 |
| 20260906021055 | 77 | 302 | 3.5 | 7.8 | 0.00 | 0.00 | 0.00 | 39 | 1011.5 |
| 20260906020555 | 77 | 300 | 4.3 | 7.8 | 0.00 | 0.00 | 0.00 | 39 | 1011.4 |
| 20260906020106 | 77 | 276 | 4.3 | 7.0 | 0.00 | 0.00 | 0.00 | 41 | 1011.4 |
| 20260906015555 | 78 | 267 | 3.5 | 7.0 | 0.00 | 0.00 | 0.00 | 42 | 1011.4 |
| 20260906015055 | 78 | 311 | 1.7 | 7.0 | 0.00 | 0.00 | 0.00 | 45 | 1011.3 |
| 20260906014607 | 78 | 176 | 3.5 | 8.7 | 0.00 | 0.00 | 0.00 | 44 | 1011.3 |
| 20260906014054 | 78 | 247 | 1.7 | 8.7 | 0.00 | 0.00 | 0.00 | 49 | 1011.3 |
| 20260906013555 | 78 | 258 | 2.6 | 7.8 | 0.00 | 0.00 | 0.00 | 46 | 1011.4 |
| 20260906013100 | 78 | 307 | 3.5 | 7.8 | 0.00 | 0.00 | 0.00 | 49 | 1011.3 |
| 20260906012555 | 78 | 271 | 3.5 | 7.8 | 0.00 | 0.00 | 0.00 | 50 | 1011.4 |
| 20260906012056 | 78 | 261 | 2.6 | 7.8 | 0.00 | 0.00 | 0.00 | 50 | 1011.5 |
| 20260906011605 | 78 | 194 | 1.7 | 6.1 | 0.00 | 0.00 | 0.00 | 51 | 1011.3 |
| 20260906011055 | 78 | 254 | 1.7 | 9.6 | 0.00 | 0.00 | 0.00 | 51 | 1011.3 |
| 20260906010555 | 79 | 231 | 3.5 | 9.6 | 0.00 | 0.00 | 0.00 | 52 | 1011.2 |
| 20260906005556 | 80 | 232 | 3.5 | 7.0 | 0.00 | 0.00 | 0.00 | 48 | 1011.3 |
| 20260906005056 | 80 | 167 | 2.6 | 7.0 | 0.00 | 0.00 | 0.00 | 47 | 1011.2 |
| 20260906004608 | 80 | 248 | 1.7 | 7.0 | 0.00 | 0.00 | 0.00 | 46 | 1011.2 |
| 20260906004055 | 80 | 250 | 3.5 | 7.8 | 0.00 | 0.00 | 0.00 | 48 | 1011.1 |
| 20260906003556 | 80 | 189 | 3.5 | 8.7 | 0.00 | 0.00 | 0.00 | 49 | 1011.2 |
| 20260906003101 | 80 | 202 | 2.6 | 10.4 | 0.00 | 0.00 | 0.00 | 50 | 1011.0 |
| 20260906002559 | 80 | 181 | 6.1 | 10.4 | 0.00 | 0.00 | 0.00 | 49 | 1011.0 |
| 20260906002056 | 80 | 199 | 3.5 | 8.7 | 0.00 | 0.00 | 0.00 | 50 | 1011.0 |
| 20260906001559 | 80 | 244 | 4.3 | 9.6 | 0.00 | 0.00 | 0.00 | 49 | 1011.0 |
| 20260906001056 | 81 | 189 | 5.2 | 9.6 | 0.00 | 0.00 | 0.00 | 47 | 1011.1 |
| 20260906000555 | 81 | 223 | 5.2 | 9.6 | 0.00 | 0.00 | 0.00 | 47 | 1011.1 |
| 20260906000110 | 82 | 151 | 3.5 | 9.6 | 0.00 | 0.00 | 0.00 | 49 | 1011.1 |
| 20260905235555 | 82 | 223 | 2.6 | 7.8 | 0.00 | 0.00 | 0.00 | 49 | 1011.1 |
| 20260905235055 | 82 | 183 | 3.5 | 7.8 | 0.00 | 0.00 | 0.00 | 47 | 1011.2 |
| 20260905234602 | 82 | 162 | 2.6 | 8.7 | 0.00 | 0.00 | 0.00 | 51 | 1011.0 |
| 20260905234059 | 82 | 176 | 3.5 | 9.6 | 0.00 | 0.00 | 0.00 | 48 | 1011.1 |
| 20260905233555 | 82 | 270 | 5.2 | 9.6 | 0.00 | 0.00 | 0.00 | 46 | 1010.9 |
| 20260905233105 | 82 | 300 | 5.2 | 9.6 | 0.00 | 0.00 | 0.00 | 48 | 1010.9 |
| 20260905232556 | 82 | 173 | 2.6 | 7.8 | 0.00 | 0.00 | 0.00 | 46 | 1011.2 |
| 20260905232056 | 82 | 279 | 2.6 | 8.7 | 0.00 | 0.00 | 0.00 | 50 | 1011.1 |
| 20260905231619 | 82 | 263 | 4.3 | 8.7 | 0.00 | 0.00 | 0.00 | 48 | 1011.2 |
| 20260905231055 | 82 | 247 | 4.3 | 9.6 | 0.00 | 0.00 | 0.00 | 48 | 1011.2 |
| 20260905230556 | 82 | 217 | 4.3 | 9.6 | 0.00 | 0.00 | 0.00 | 48 | 1011.2 |
| 20260905230112 | 82 | 271 | 6.1 | 9.6 | 0.00 | 0.00 | 0.00 | 48 | 1011.2 |
| 20260905225555 | 83 | 302 | 4.3 | 9.6 | 0.00 | 0.00 | 0.00 | 50 | 1011.3 |
| 20260905225055 | 83 | 130 | 4.3 | 10.4 | 0.00 | 0.00 | 0.00 | 48 | 1011.2 |
| 20260905224559 | 83 | 168 | 3.5 | 10.4 | 0.00 | 0.00 | 0.00 | 47 | 1011.3 |
| 20260905224055 | 83 | 250 | 3.5 | 9.6 | 0.00 | 0.00 | 0.00 | 47 | 1011.3 |
| 20260905223555 | 83 | 199 | 4.3 | 9.6 | 0.00 | 0.00 | 0.00 | 48 | 1011.5 |
| 20260905223106 | 83 | 148 | 2.6 | 7.0 | 0.00 | 0.00 | 0.00 | 48 | 1011.5 |
| 20260905222557 | 83 | 153 | 3.5 | 7.8 | 0.00 | 0.00 | 0.00 | 48 | 1011.5 |
| 20260905222055 | 83 | 0 | 3.5 | 10.4 | 0.00 | 0.00 | 0.00 | 46 | 1011.6 |
| 20260905221628 | 84 | 169 | 3.5 | 10.4 | 0.00 | 0.00 | 0.00 | 45 | 1011.6 |
| 20260905221055 | 84 | 191 | 4.3 | 8.7 | 0.00 | 0.00 | 0.00 | 43 | 1011.8 |
| 20260905220555 | 84 | 216 | 4.3 | 8.7 | 0.00 | 0.00 | 0.00 | 41 | 1011.7 |
| 20260905220103 | 84 | 201 | 4.3 | 8.7 | 0.00 | 0.00 | 0.00 | 42 | 1011.9 |
| 20260905215556 | 84 | 235 | 3.5 | 8.7 | 0.00 | 0.00 | 0.00 | 42 | 1011.8 |
| 20260905215056 | 84 | 262 | 3.5 | 9.6 | 0.00 | 0.00 | 0.00 | 41 | 1011.8 |
| 20260905214603 | 84 | 181 | 3.5 | 9.6 | 0.00 | 0.00 | 0.00 | 41 | 1011.8 |
| 20260905214057 | 84 | 184 | 2.6 | 7.8 | 0.00 | 0.00 | 0.00 | 42 | 1012.0 |
| 20260905213556 | 83 | 185 | 3.5 | 9.6 | 0.00 | 0.00 | 0.00 | 43 | 1012.0 |
| 20260905213130 | 83 | 160 | 4.3 | 9.6 | 0.00 | 0.00 | 0.00 | 43 | 1012.0 |
| 20260905212557 | 83 | 153 | 1.7 | 7.8 | 0.00 | 0.00 | 0.00 | 45 | 1012.1 |
| 20260905212056 | 83 | 234 | 4.3 | 7.8 | 0.00 | 0.00 | 0.00 | 48 | 1012.1 |
| 20260905211605 | 83 | 186 | 4.3 | 7.8 | 0.00 | 0.00 | 0.00 | 46 | 1012.2 |
| 20260905211055 | 83 | 314 | 1.7 | 7.8 | 0.00 | 0.00 | 0.00 | 49 | 1012.3 |
| 20260905210555 | 82 | 288 | 4.3 | 7.8 | 0.00 | 0.00 | 0.00 | 49 | 1012.3 |
| 20260905210111 | 82 | 286 | 2.6 | 7.8 | 0.00 | 0.00 | 0.00 | 51 | 1012.4 |